Skip Page Navigation
NASA JPL Caltech
NASA Logo - Jet Propulsion Laboratory + View the NASA Portal
+ Center for Near-Earth Object Studies
JPL Home Earth Solar System Stars & Galaxies Technology
JPL Solar System Dynamics
BODIES ORBITS EPHEMERIDES TOOLS PHYSICAL DATA DISCOVERY FAQ SITE MAP
IMPORTANT: The SSD Announcement email list is now available. Major changes are coming in the near future, including possible hostname and/or URL changes. To be notified of such changes, subscribe to this email list.

Please visit this page for more details.


JPL Small-Body Database Browser
Search: [ help ]  
(2008 PF1)
Classification: Apollo [NEO, PHA]          SPK-ID: 3423024
Ephemeris | Orbit Diagram | Orbital Elements | Mission Design | Physical Parameters | Close-Approach Data ]

[ show orbit diagram ]
Orbital Elements at Epoch 2459000.5 (2020-May-31.0) TDB
Reference: JPL 27 (heliocentric ecliptic J2000)
 Element Value Uncertainty (1-sigma)   Units 
e .4945615471853843 1.4353e-07  
a 1.359781948186942 3.5001e-08 au
q .6872860840568518 1.7767e-07 au
i 2.754947617039968 1.8347e-05 deg
node 129.5714286907277 0.00010977 deg
peri 284.2218861109792 0.00011787 deg
M 121.1913054892622 0.00011557 deg
tp 2458805.528426350290
(2019-Nov-18.02842635)
0.0001784 TDB
period 579.1650335849748
1.59
2.2362e-05
6.122e-08
d
yr
n .6215844865005666 2.3999e-08 deg/d
Q 2.032277812317031 5.2311e-08 au
  Orbit Determination Parameters
   # obs. used (total)      130  
   data-arc span      3979 days (10.89 yr)  
   first obs. used      2008-08-03  
   last obs. used      2019-06-26  
   planetary ephem.      DE431  
   SB-pert. ephem.      SB431-N16  
   condition code      1  
   norm. resid. RMS      .43185  
   source      ORB  
   producer      Otto Matic  
   solution date      2019-Jun-26 05:37:03  

Additional Information
 Earth MOID = .00775122 au 
 Jupiter MOID = 3.34907 au 
 T_jup = 4.714 
[ show covariance matrix ]

Ephemeris | Orbit Diagram | Orbital Elements | Mission Design | Physical Parameters | Close-Approach Data ]

Physical Parameter Table
Parameter Symbol Value Units Sigma Reference Notes
absolute magnitude H 22.0   n/a MPO477594  

[ show close-approach data ]
Ephemeris | Orbit Diagram | Orbital Elements | Mission Design | Physical Parameters | Close-Approach Data ]
ABOUT SSD CREDITS/AWARDS PRIVACY/COPYRIGHT GLOSSARY LINKS
FirstGov 2020-Feb-17 04:47 UT
(server date/time)  
NASA Home Page
Site Manager:   Ryan S. Park
Webmaster  Alan B. Chamberlin